SCP
3 4 5 5 5 4 4 4 4 3 3 3 4 4 4 4 5 4 4 3 3 2 2 2 2 2 2 2 2 2 2 2 2 2 2 2 2 2 2 2 2 2 2
4 4 5 6 5 5 5 4 4 4 4 4 4 4 5 5 5 5 4 3 3 2 2 2 2 2 1 1 2 2 2 2 2 2 2 2 2 2 2 2 2 2 3
5 5 6 6 6 5 5 5 5 4 4 5 5 5 5 5 5 5 4 3 2 2 2 2 2 2 1 1 2 2 2 2 2 3 3 3 3 3 3 3 3 3 3
5 5 6 7 7 6 6 5 5 5 5 5 5 5 5 5 4 4 3 3 2 2 2 2 2 2 1 1 1 2 2 2 2 2 3 3 3 3 3 3 3 3 3
4 4 6 7 7 7 6 6 6 6 5 5 4 4 4 4 4 3 3 2 2 2 2 2 2 2 1 1 1 1 1 2 2 2 2 2 3 3 3 3 3 3 3
3 3 5 6 7 7 6 6 6 6 5 4 4 3 3 3 3 3 3 2 2 2 2 2 2 1 1 1 1 1 1 2 2 2 2 2 3 3 3 3 3 3 3
2 3 4 5 6 6 6 6 6 5 5 4 3 3 3 3 3 3 2 2 2 2 2 1 1 1 1 1 1 1 2 2 2 2 2 2 3 3 3 3 3 3 3
3 3 3 4 5 5 6 6 5 5 4 3 3 3 3 3 3 2 2 2 2 2 2 1 1 1 1 1 1 1 2 2 2 2 2 3 4 4 4 3 3 3 3
3 3 3 3 4 4 5 5 5 4 4 3 3 3 3 3 2 2 2 2 2 2 2 1 1 1 1 1 1 1 1 2 2 2 3 3 4 5 4 4 3 3 3
3 2 2 2 3 3 3 3 3 3 3 3 3 3 3 2 2 2 2 2 2 2 2 1 1 1 1 1 1 1 1 1 1 1 2 3 4 4 4 4 4 4 3
3 2 2 2 3 2 2 2 2 2 2 3 3 3 2 2 2 2 2 2 2 2 2 2 2 2 1 1 1 1 1 1 1 1 2 3 4 4 4 4 4 4 4
3 2 2 2 2 2 2 2 2 2 2 2 2 2 2 2 2 2 2 3 3 3 3 2 2 2 2 2 1 1 1 1 1 1 2 3 3 3 3 4 4 4 4
3 2 2 2 3 2 2 2 2 2 2 2 2 2 3 3 3 3 3 3 3 3 3 3 3 2 2 2 2 2 1 1 1 2 3 4 4 3 3 3 4 4 4
3 2 2 3 3 3 3 2 2 2 2 2 3 3 3 3 3 3 3 3 3 3 3 3 3 3 3 2 2 2 2 2 2 3 3 4 4 4 3 3 3 4 4
3 3 3 3 4 5 4 3 3 3 2 3 3 3 3 3 3 3 4 4 4 4 4 4 4 4 4 3 3 2 2 2 3 3 4 4 4 4 4 4 3 3 3
4 4 4 4 5 6 5 4 3 3 3 3 3 3 3 3 3 4 4 4 5 5 5 5 5 5 5 5 4 4 3 3 3 4 4 4 4 4 4 4 4 4 3
5 5 5 5 6 6 5 4 4 3 3 4 4 4 3 3 3 4 4 5 5 6 7 7 6 5 5 5 5 4 4 4 4 4 4 4 4 4 4 4 4 4 4
6 6 6 6 6 6 6 5 5 4 4 5 4 4 3 3 3 4 5 5 5 6 7 7 6 6 5 4 4 4 5 5 4 4 4 4 4 3 3 4 4 5 5
7 8 7 7 7 7 7 6 6 6 6 5 5 5 4 4 4 4 5 4 4 5 6 6 7 7 5 4 3 3 4 4 4 3 3 3 3 3 3 3 3 4 4
9 9 8 7 7 7 7 7 6 6 6 6 6 6 5 5 4 5 5 4 4 5 5 7 8 7 5 3 3 3 3 3 3 2 2 2 2 2 2 2 2 2 2
9 9 8 8 8 8 7 7 6 6 6 6 6 7 7 6 5 5 5 6 6 5 5 6 6 5 4 3 2 2 2 2 2 2 2 2 2 1 1 1 1 1 1
8 8 8 8 9 9 8 7 7 7 7 7 7 7 7 6 5 5 7 7 7 5 5 5 4 3 3 2 2 2 2 2 1 1 1 1 1 1 1 1 1 1 1
7 7 8 9 10 10 9 7 7 7 7 7 7 7 7 6 5 5 6 7 6 5 4 3 3 2 2 2 1 1 1 1 1 1 1 0 0 0 0 0 0 0 1
7 7 8 10 10 10 9 7 6 6 6 6 7 7 7 6 5 4 4 5 4 4 3 2 2 1 1 1 1 1 1 1 1 1 0 0 0 0 0 0 0 0 0
7 7 8 9 10 9 8 7 6 5 4 5 6 6 6 6 5 4 3 3 2 2 1 1 1 0 0 0 0 0 0 0 0 0 0 0 0 0 0 0 0 0 0
7 7 7 8 9 9 8 7 6 5 4 5 5 5 5 6 6 4 3 1 1 1 0 0 0 0 0 0 0 0 0 0 0 0 0 0 0 0 0 0 0 0 0
Wind_Speed
19 19 19 18 17 17 16 16 15 14 13 13 12 11 11 11 11 12 12 12 11 11 11 11 10 10 10 11 12 12 12 11 12 13 14 13 12 10 9 7 7 12 13
22 20 19 18 17 17 16 16 15 14 13 13 12 12 11 11 11 11 11 11 11 11 11 10 10 10 10 10 10 9 9 8 8 10 12 12 11 9 8 7 8 10 11
21 19 18 17 17 17 17 16 15 15 14 13 13 12 11 11 11 11 11 10 10 10 10 10 10 10 9 8 8 7 6 4 4 5 8 8 9 9 10 12 14 13 10
20 17 16 17 17 17 17 16 16 16 15 14 13 12 12 11 11 10 10 10 10 9 9 9 9 9 8 7 6 4 3 1 1 4 4 4 7 10 9 10 11 10 9
17 16 17 17 17 17 17 17 16 16 15 14 14 13 12 11 10 10 10 10 9 9 8 8 8 7 7 6 5 2 2 3 5 6 4 5 8 9 9 8 8 8 7
18 17 17 17 17 17 17 17 17 16 15 14 13 13 12 11 10 10 10 9 9 8 8 7 7 6 5 4 3 2 4 6 8 5 1 6 9 9 9 7 7 6 6
18 17 17 16 17 17 17 16 16 16 15 14 13 12 11 10 10 9 9 9 8 8 7 6 6 5 4 2 1 3 6 8 8 5 2 7 10 11 9 7 6 5 5
19 18 16 16 17 16 16 16 15 15 14 13 12 12 11 10 9 9 9 8 8 7 6 6 5 4 3 1 1 4 7 10 8 5 4 8 12 12 9 7 6 5 4
20 19 16 15 15 16 15 15 15 14 14 13 12 11 11 10 10 10 9 8 8 7 6 5 4 3 3 3 3 5 8 10 9 5 3 7 11 12 10 8 6 5 4
19 18 17 16 14 14 13 15 15 15 14 13 13 12 11 10 10 10 10 8 8 7 6 5 5 4 5 5 6 7 9 10 8 4 3 8 11 11 10 8 7 6 5
17 16 17 17 14 14 14 14 14 14 13 13 11 11 11 8 9 9 10 11 9 8 7 7 7 7 7 9 10 10 8 6 7 2 5 13 13 12 10 8 7 6 6
17 17 16 17 15 14 12 11 9 10 10 9 8 9 7 6 5 8 13 12 11 9 8 9 9 9 9 6 9 10 6 8 7 2 7 16 14 13 11 9 8 7 7
16 15 16 16 13 13 10 10 7 5 7 7 8 8 6 4 4 6 6 7 7 9 7 7 8 7 7 5 4 6 7 5 2 3 8 14 13 12 11 9 8 8 7
15 15 15 16 12 10 11 9 7 6 6 6 7 8 5 3 3 4 4 6 6 5 5 5 5 6 4 2 2 4 3 2 0 3 7 12 11 11 10 10 9 8 8
14 13 13 13 10 7 7 6 7 6 7 7 6 6 5 4 3 2 2 2 2 2 3 2 2 1 1 2 3 3 3 3 2 4 5 10 10 10 10 10 9 9 8
13 12 12 13 12 9 6 3 4 5 4 4 5 6 5 2 2 1 1 1 1 1 1 1 1 1 1 2 3 4 4 5 4 3 4 5 8 8 8 8 8 8 8
12 10 10 11 11 9 8 6 5 4 5 4 4 5 4 2 2 2 1 1 0 1 1 2 2 2 2 2 2 3 3 4 5 4 2 2 3 5 6 6 7 6 6
12 10 9 10 12 8 6 4 3 3 4 3 4 4 4 2 3 2 1 1 1 1 1 1 1 1 2 2 2 2 2 1 2 2 2 1 2 2 3 4 4 5 5
10 10 7 7 10 9 7 4 2 3 4 3 3 3 4 3 3 2 1 2 2 2 1 1 1 1 1 1 2 1 1 2 2 3 3 2 2 2 2 3 3 3 3
9 8 6 6 8 8 6 4 2 3 4 4 4 4 5 3 3 3 2 3 2 2 2 2 2 2 2 2 3 3 2 2 2 2 3 3 2 3 3 2 2 1 2
8 7 5 5 6 5 5 5 4 3 4 4 4 6 6 6 5 5 3 4 3 3 3 2 2 2 2 2 2 2 2 1 1 1 1 2 3 3 3 3 2 2 2
7 5 4 4 4 4 3 3 3 4 5 5 6 8 8 7 6 5 5 3 3 3 3 3 2 1 1 2 1 2 2 1 1 1 2 2 2 3 3 3 3 3 3
8 6 4 3 3 3 4 4 5 5 5 5 6 6 9 9 8 7 7 5 5 5 4 5 4 2 1 2 2 1 1 2 2 1 2 2 3 3 2 2 3 4 3
9 8 9 8 5 4 4 5 7 6 6 6 6 7 9 9 9 8 8 7 7 6 6 6 6 4 3 2 2 2 2 2 2 2 2 2 2 2 2 3 3 2 2
10 9 9 10 9 8 7 6 8 8 8 7 8 10 9 8 9 9 8 8 7 7 8 8 7 7 5 5 3 2 3 2 2 1 2 3 2 1 1 1 1 1 1
11 10 10 12 12 12 12 11 11 11 10 11 10 8 7 7 7 9 9 8 8 7 7 7 7 8 6 6 5 4 3 3 3 2 2 3 3 2 2 1 1 1 0
Wind_Direction
125 130 133 134 136 138 137 136 133 131 128 125 119 112 105 99 94 92 91 91 91 92 92 90 86 81 77 73 71 72 74 76 79 83 86 86 86 86 86 96 113 96 100
126 130 132 135 138 140 140 139 137 135 133 129 124 119 112 106 100 97 96 94 94 95 96 95 92 88 84 80 76 76 79 83 91 102 108 101 92 81 67 56 84 105 107
124 129 132 135 140 142 142 140 139 138 137 133 129 124 118 112 107 104 101 99 99 99 100 99 97 93 90 86 81 79 82 93 109 138 153 123 107 88 77 80 92 104 106
126 135 133 135 139 142 142 141 141 142 141 138 134 130 124 118 114 110 107 105 103 103 102 101 98 96 92 88 83 78 72 68 232 230 225 138 120 102 91 91 98 104 107
129 130 128 136 137 140 142 143 144 145 144 141 138 134 129 123 119 115 113 111 108 106 105 103 102 98 92 86 78 54 346 317 300 274 274 104 100 115 106 102 105 108 111
133 130 132 135 136 139 142 144 145 146 145 143 140 136 131 127 123 120 118 117 115 113 110 107 105 102 97 89 71 359 318 309 297 275 273 114 116 126 122 119 115 114 118
137 130 134 134 135 138 142 144 145 145 144 142 139 136 133 130 126 124 124 123 122 121 117 113 110 107 103 94 40 316 305 304 281 278 172 119 123 135 135 134 130 129 130
135 131 132 134 135 137 140 142 142 142 141 139 138 137 134 132 131 131 131 130 130 128 127 126 124 122 120 128 285 293 298 298 298 310 126 118 136 141 141 142 142 145 146
134 133 141 140 138 137 138 139 139 139 139 138 139 139 139 139 140 141 139 138 138 137 140 144 150 157 175 214 248 269 282 290 295 285 131 123 142 144 147 152 157 161 163
137 141 149 148 145 145 143 141 140 140 140 141 144 148 149 149 153 154 152 148 150 154 160 168 180 195 211 227 240 253 268 285 273 276 113 129 144 150 155 163 170 175 178
141 146 154 151 154 155 151 145 144 144 143 146 153 159 162 175 173 172 165 154 164 171 179 189 202 214 225 230 237 245 258 260 264 230 121 145 155 159 164 173 180 185 190
150 155 155 152 160 162 153 145 156 161 156 173 167 173 194 205 181 169 150 164 174 185 194 207 217 225 233 232 224 232 244 245 256 178 143 154 159 164 168 178 188 194 199
155 157 154 154 163 160 143 155 164 165 159 191 172 183 204 206 171 146 161 167 183 194 203 206 217 228 229 230 200 207 229 249 254 122 147 158 161 166 170 179 191 201 207
157 158 153 153 160 153 148 158 160 163 166 184 171 191 191 198 205 173 174 173 185 195 199 190 220 223 233 263 261 252 255 257 290 111 148 158 164 169 173 181 192 203 211
156 154 147 152 139 126 127 156 166 163 172 176 162 191 184 181 209 189 159 147 198 176 165 196 233 309 344 319 306 306 337 346 6 87 143 162 167 172 177 185 194 204 211
155 151 142 143 133 133 138 158 142 156 158 155 160 172 181 188 165 138 145 132 302 27 74 65 16 18 347 339 345 348 354 351 13 44 123 157 173 177 183 189 195 201 207
146 142 135 139 140 144 153 174 158 157 154 149 144 149 159 184 139 118 75 88 352 28 41 35 7 7 332 332 344 351 6 6 353 8 57 144 164 186 193 197 195 194 201
141 133 142 151 147 149 156 171 149 154 138 136 133 141 154 156 118 112 89 78 49 35 43 37 354 353 0 356 347 349 359 8 328 342 344 55 122 133 174 188 201 189 189
122 129 141 137 142 153 154 156 157 123 108 113 109 115 124 118 110 110 74 61 51 43 29 334 57 35 354 334 310 300 328 352 1 338 341 11 55 78 120 130 172 182 177
106 117 129 131 132 141 146 153 153 120 101 90 81 74 82 84 80 90 82 55 43 47 36 22 33 27 12 344 316 323 337 340 360 352 334 355 35 48 72 90 121 138 128
90 100 110 129 135 144 153 164 164 142 116 94 78 70 66 58 60 66 67 60 47 50 44 34 34 16 19 358 324 310 288 282 323 324 341 10 26 32 44 53 70 73 87
73 88 110 130 133 142 149 148 139 122 105 92 80 67 63 61 55 65 60 58 55 58 49 34 28 20 33 22 348 318 318 334 354 26 15 23 33 32 28 36 56 68 77
60 55 64 76 104 127 131 134 130 115 109 97 82 70 55 53 51 53 59 57 56 57 50 41 22 22 49 42 40 17 348 335 340 16 16 28 29 29 25 46 55 57 65
51 48 45 47 57 70 104 138 137 128 116 96 88 81 69 58 55 52 57 58 58 56 51 44 35 27 34 35 42 42 48 36 348 332 351 18 14 20 23 21 34 46 64
48 50 52 51 49 52 60 84 100 97 97 95 90 84 76 65 59 55 55 59 59 59 58 54 47 43 42 39 33 26 28 32 15 335 320 341 340 343 353 45 29 14 55
51 51 55 59 54 52 59 69 87 99 102 99 94 90 80 71 62 60 60 61 60 59 58 57 53 52 48 46 40 33 26 26 8 354 331 327 325 316 302 258 242 236 197